User: anonymous   Login
Location: CNYAC Observatory
(43.2150°N, 74.9500°W)
Time: 20:12:36
(UTC-05:00)
Language:

Cosmos 1300 Rocket - Orbit

View from above orbital plane
View from above orbital plane
View from above satellite
View from above satellite

Ground track
Ground track

The orbit data is extracted from the following two-line orbital elements,

1 12786U 81082B   17022.75929640 +.00000079 +00000-0 +65066-5 0  9991
2 12786 082.4896 104.7778 0018007 019.9997 340.1920 14.84663502892138
Epoch (UTC): 22 January 2017 18:13:23
Eccentricity: 0.0018007
inclination: 82.4896°
perigee height: 602 km
apogee height: 627 km
right ascension of ascending node: 104.7778°
argument of perigee: 19.9997°
revolutions per day: 14.84663502
mean anomaly at epoch: 340.1920°
orbit number at epoch: 89213

The dashed part of the orbit path shows where the satellite is in the earth's shadow,  

DLR